Location: ???????
(55.4362°N, 38.1183°E)
Time: 11:56:51
(UTC+00:00)

USA 267 - Pass Details

Date: 29 October 2021
Orbit: 1101 x 1107 km, 123.0° (Epoch: 25 November)

Event Time Altitude Azimuth Distance (km) Brightness Sun altitude
Exits shadow 17:49:11 - 202° (SSW) 3,123 5.6 -33.1°
Reaches altitude 10° 17:50:05 10° 209° (SSW) 2,954 5.5 -33.2°
Maximum altitude 17:53:15 14° 239° (WSW) 2,670 5.6 -33.6°
Drops below altitude 10° 17:56:26 10° 269° (W) 2,961 6.1 -34.0°
Sets 18:00:29 0° 293° (WNW) 3,924 7.2 -34.5°
